Meteor 2-2 Rocket - Orbit

View from above orbital plane
View from above orbital plane
View from above satellite
View from above satellite

Ground track
Ground track

The orbit data is extracted from the following two-line orbital elements,

1 09662U 77002B   13141.82293703  .00000062  00000-0  33053-4 0   484
2 09662 081.2776 054.4196 0051183 261.0454 156.0743 14.00746908858393
Epoch (UTC): 21 May 2013 19:45:01
Eccentricity: 0.0051183
inclination: 81.2776°
perigee height: 854 km
apogee height: 928 km
right ascension of ascending node: 54.4196°
argument of perigee: 261.0454°
revolutions per day: 14.00746908
mean anomaly at epoch: 156.0743°
orbit number at epoch: 85839

The dashed part of the orbit path shows where the satellite is in the earth's shadow,  

Developed and maintained by Chris Peat, Heavens-Above GmbH. Please read the updated FAQ before sending e-mail. Imprint. DLR